Location: Unspecified
(43.8044°N, 11.0278°E)
Time: 17:34:37
(UTC+02:00)

CZ-3 Stage 3 - Visible Passes

Search period start: 27 April 2015 00:00
Search period end: 07 May 2015 00:00
Orbit: 419 x 34810 km, 31.0° (Epoch: 23 April)

Date Brightness Start Highest point End Pass type
(mag) Time Alt. Az. Time Alt. Az. Time Alt. Az.
27 Apr 7.7 14:37:57 10° WSW 23:08:28 14° W 23:24:20 10° WSW visible
30 Apr 7.8 14:33:11 10° WSW 23:02:08 13° W 23:15:11 10° WSW visible
03 May 7.9 14:28:22 10° W 22:55:44 12° W 23:04:56 10° WSW visible
06 May 8.1 14:23:29 10° W 22:49:14 11° W 22:53:26 10° W visible
